Regional Weather Roundup
Issued by NWS Austin/San Antonio, TX

Home | Current Version | Previous Version | Text Only | Print | Product List | Glossary On
Versions: 1 2 3 4 5 6 7 8 9 10 11 12 13 14 15 16 17 18 19 20 21 22 23 24 25 26 27 28 29 30 31 32 33 34 35 36 37 38 39 40 41 42 43 44 45 46 47 48 49 50
302
ASUS44 KEWX 211211
RWREWX
SOUTH TEXAS REGIONAL WEATHER ROUNDUP
NATIONAL WEATHER SERVICE AUSTIN/SAN ANTONIO TX
600 AM CST THU NOV 21 2019

NOTE: "FAIR" INDICATED FEW OR NO CLOUDS BELOW 12,000 FEET WITH NO
SIGNIFICANT WEATHER AND/OR OBSTRUCTIONS TO VISIBILITY.

* - THESE STATIONS ARE NOT NWS OR FAA STATIONS...AND ARE NOT SUBJECT
    TO NWS AND FAA QUALITY CONTROL.

TXZ171-172-183>190-211300-
TEXAS HILL COUNTRY AND EDWARDS PLATEAU

CITY           SKY/WX    TMP DP  RH WIND       PRES   REMARKS
JUNCTION       CLOUDY    68  61  78 S8        29.93S
6HR MIN TEMP:  68; 6HR MAX TEMP:  69;

*LLANO         PTCLDY    64  61  88 CALM      29.97S
BURNET           N/A    N/A N/A N/A MISG      29.97S
*HORSESHOE BAY PTCLDY    66  63  88 SE6       29.95S
*LAGO VISTA    PTCLDY    66  64  93 S5        29.97R
6HR MIN TEMP:  66; 6HR MAX TEMP:  69;

*KERRVILLE     CLOUDY    64  60  87 CALM      29.96R
6HR MIN TEMP:  64; 6HR MAX TEMP:  66;

*FREDERICKSBRG CLOUDY    65  59  80 S7        29.96S
6HR MIN TEMP:  65; 6HR MAX TEMP:  67;

*ROCKSPRINGS   CLOUDY    63  61  94 SE12G17   29.98S
*BOERNE        CLOUDY    63  63 100 CALM      29.99R
*CASTROVILLE   CLOUDY    67  65  94 E3        29.97R
HONDO          CLOUDY    66  62  87 E7        29.94R
6HR MIN TEMP:  64; 6HR MAX TEMP:  69;

*UVALDE        MOCLDY    64  62  94 E7        29.93R
6HR MIN TEMP:  63; 6HR MAX TEMP:  71;

DEL RIO        CLOUDY    69  62  78 E10G20    29.87R
6HR MIN TEMP:  69; 6HR MAX TEMP:  70;

*LAUGHLIN AFB  CLOUDY    67  62  86 SE13      29.88S
6HR MIN TEMP:  66; 6HR MAX TEMP:  68;

*SPOFFORD      CLOUDY    66  62  88 E8        29.84S
6HR MIN TEMP:  64; 6HR MAX TEMP:  70;

*EAGLE PASS    CLOUDY    64  61  88 E6        29.89S
CARRIZO SPRGS  CLEAR     63  63 100 CALM      29.90R
*FAITH RANCH   CLEAR     68  63  83 CALM      29.90R
$$

TXZ173-191>194-202-209-217>225-228-211300-
CENTRAL AND SOUTH CENTRAL TEXAS

CITY           SKY/WX    TMP DP  RH WIND       PRES   REMARKS
GEORGETOWN     CLOUDY    69  65  86 S6        29.98R
6HR MIN TEMP:  69; 6HR MAX TEMP:  71;

AUSTIN/BERGSTM MOCLDY    70  66  87 SE6       29.95S
6HR MIN TEMP:  68; 6HR MAX TEMP:  73;

AUSTIN/MABRY   MOCLDY    70  64  81 VRB3      29.96R
6HR MIN TEMP:  69; 6HR MAX TEMP:  72;

*PFLUGERVILLE  CLOUDY    70  66  88 S6        29.97R
*TAYLOR        CLOUDY    70  66  87 S8        29.97R
6HR MIN TEMP:  70; 6HR MAX TEMP:  72;

SAN MARCOS     MOCLDY    68  65  90 S6        29.97R
6HR MIN TEMP:  68; 6HR MAX TEMP:  71;

NEW BRAUNFELS  PTCLDY    69  65  86 S9        29.95R
6HR MIN TEMP:  68; 6HR MAX TEMP:  71;

*RANDOLPH AFB  MOCLDY    68  64  88 S7        29.96R
6HR MIN TEMP:  67; 6HR MAX TEMP:  69; 6HR PCP: TRACE;

*SEGUIN        CLOUDY    69  64  86 S9        30.00R
6HR MIN TEMP:  68; 6HR MAX TEMP:  70; 6HR PCP: TRACE;

SAN ANTONIO    MOCLDY    68  63  84 S8        29.96R
6HR MIN TEMP:  68; 6HR MAX TEMP:  70; 6HR PCP: TRACE;

STINSON FIELD  PTCLDY    66  64  93 SE5       29.93R
6HR MIN TEMP:  66; 6HR MAX TEMP:  69; 6HR PCP: TRACE;

*KELLY FIELD   CLEAR     66  64  93 SE5       29.94R
6HR MIN TEMP:  65; 6HR MAX TEMP:  69; 6HR PCP: TRACE;

*PLEASANTON    PTCLDY    67  64  90 SE3       29.94R
6HR MIN TEMP:  67; 6HR MAX TEMP:  70;

*KENEDY        CLEAR     71  66  85 SE13      29.95R
6HR MIN TEMP:  69; 6HR MAX TEMP:  71;

*LA GRANGE     CLOUDY    72  72 100 S5        29.96R FOG
6HR MIN TEMP:  72; 6HR MAX TEMP:  73; 6HR PCP:  0.01;

*GIDDINGS      DRIZZLE   66  66 100 CALM      29.98R
6HR MIN TEMP:  66; 6HR MAX TEMP:  71; 6HR PCP:  0.08;

*GONZALES      CLOUDY    72  69  92 S6        29.96S
6HR MIN TEMP:  71; 6HR MAX TEMP:  73;

$$

TXZ163>164-176>182-195>201-210>213-226-227-235-211300-
SOUTHEAST TEXAS

CITY           SKY/WX    TMP DP  RH WIND       PRES   REMARKS
COLLEGE STN    LGT RAIN  71  69  93 S7        29.98R FOG
6HR MIN TEMP:  71; 6HR MAX TEMP:  72; 6HR PCP:  0.13;

*BRYAN         CLOUDY    71  71 100 SE6       29.99S
6HR MIN TEMP:  70; 6HR MAX TEMP:  71; 6HR PCP:  0.13;

*CALDWELL      CLOUDY    70  69  99 S6        29.98R FOG
6HR MIN TEMP:  69; 6HR MAX TEMP:  70; 6HR PCP:  0.03;

*CROCKETT      NOT AVBL
*BRENHAM       CLOUDY    71  70  97 S5        29.99R
6HR MIN TEMP:  71; 6HR MAX TEMP:  72; 6HR PCP:  0.05;

HUNTSVILLE     CLOUDY    69  65  86 CALM      30.00R
6HR MIN TEMP:  68; 6HR MAX TEMP:  70; 6HR PCP: TRACE;

CONROE         MOCLDY    69  66  90 SE6       30.01R
6HR MIN TEMP:  69; 6HR MAX TEMP:  71; 6HR PCP: TRACE;

HOUSTON BUSH   CLOUDY    72  66  81 SE13      29.99S
6HR MIN TEMP:  71; 6HR MAX TEMP:  74; 6HR PCP: TRACE;

HOUSTON HOBBY  MOCLDY    72  65  78 SE13      29.98F
6HR MIN TEMP:  72; 6HR MAX TEMP:  74; 6HR PCP: TRACE;

*HOUSTON SW AP FAIR      69  67  92 SE7       29.99F
6HR MIN TEMP:  69; 6HR MAX TEMP:  71;

PEARLAND       FAIR      73  65  75 SE9       30.01F
6HR MIN TEMP:  73; 6HR MAX TEMP:  74; 6HR PCP: TRACE;

HOUSTON HOOKS  FAIR      71  65  81 SE10      29.98S
6HR MIN TEMP:  71; 6HR MAX TEMP:  73; 6HR PCP: TRACE;

ELLINGTON FLD  MOCLDY    72  66  83 SE10      29.98F
SUGAR LAND     FAIR      72  68  87 SE9       29.98R
6HR MIN TEMP:  71; 6HR MAX TEMP:  73;

*HOUSTON EXEC  FAIR      72  70  94 S12       30.00R
*CLEVELAND MUN MOCLDY    67  64  91 S3        30.01F FOG
6HR MIN TEMP:  66; 6HR MAX TEMP:  67;

*WHARTON       CLEAR     70  66  86 SE8       30.00R
6HR MIN TEMP:  70; 6HR MAX TEMP:  73;

*COLUMBUS      MOCLDY    67  64  88 CALM      30.00R
6HR MIN TEMP:  67; 6HR MAX TEMP:  68; 6HR PCP:  0.01;

*EAGLE LAKE    CLEAR     72  70  93 S8        29.97
6HR MIN TEMP:  72; 6HR MAX TEMP:  73; 6HR PCP:  0.06;

$$

TXZ214>216-236>238-211300-
THE UPPER TEXAS COAST

CITY           SKY/WX    TMP DP  RH WIND       PRES   REMARKS
*ORANGE        FAIR      63  59  88 E7        30.09S
6HR MIN TEMP:  63; 6HR MAX TEMP:  66;

PORT ARTHUR    MOCLDY    66  62  87 E10       30.04F
6HR MIN TEMP:  65; 6HR MAX TEMP:  67;

GALVESTON      FAIR      70  67  90 SE13      30.02F
6HR MIN TEMP:  70; 6HR MAX TEMP:  71;

ANGLETON       FAIR      73  67  81 SE15      29.99S
6HR MIN TEMP:  73; 6HR MAX TEMP:  74;

*BAY CITY      CLEAR     74  70  86 SE12G20   29.97S
PALACIOS       CLEAR     72  67  84 SE14      29.97R
6HR MIN TEMP:  70; 6HR MAX TEMP:  72; 6HR PCP: TRACE;

$$

TXZ229>234-239>247-211300-
TEXAS COASTAL BEND AND RIO GRANDE PLAINS

CITY           SKY/WX    TMP DP  RH WIND       PRES   REMARKS
VICTORIA       CLOUDY    70  68  93 SE5       29.96S FOG
6HR MIN TEMP:  69; 6HR MAX TEMP:  72; 6HR PCP:  0.08;

*BEEVILLE      NOT AVBL
ROCKPORT       CLEAR     71  66  84 SE6       29.94R HAZE
6HR MIN TEMP:  71; 6HR MAX TEMP:  74; 6HR PCP: TRACE;

*PORT ARANSAS  CLEAR     68  67  94 SE6       29.96R FOG
6HR MIN TEMP:  68; 6HR MAX TEMP:  71;

*PORT LAVACA   CLEAR     73  70  91 SE10      29.96R
6HR MIN TEMP:  72; 6HR MAX TEMP:  74;

*INGLESIDE     CLEAR     71  70  98 S8        29.94R
CORPUS CHRISTI MOCLDY    69  68  96 S9        29.94R
6HR MIN TEMP:  68; 6HR MAX TEMP:  70;

CORPUS NAS     MOCLDY    70  69  97 S8        29.94R
6HR MIN TEMP:  69; 6HR MAX TEMP:  71;

*ROBSTOWN      CLEAR     69  66  93 SE8       29.94R
6HR MIN TEMP:  68; 6HR MAX TEMP:  70;

ALICE          CLEAR     69  66  90 SE10      29.91S
6HR MIN TEMP:  68; 6HR MAX TEMP:  72;

KINGSVILLE NAS CLEAR     69  67  93 SE9       29.92R
6HR MIN TEMP:  67; 6HR MAX TEMP:  72;

COTULLA        CLEAR     69  67  93 SE8



USA.gov is the U.S. government's official web portal to all federal, state and local government web resources and services.